| time (UTC) | temp C | wind direction | speed KPH | gust KPH | rain 1hr cm | rain 24hr cm | rain mn cm | humidity % | barometer mb |
| 20260831224552 | 25 | 146 | 8.0 | 19.3 | 0.00 | 0.00 | 0.00 | 46 | 1011.8 |
| 20260831223052 | 25 | 198 | 8.0 | 25.7 | 0.00 | 0.00 | 0.00 | 46 | 1011.9 |
| 20260831221551 | 25 | 271 | 8.0 | 27.4 | 0.00 | 0.00 | 0.00 | 46 | 1012.2 |
| 20260831220051 | 25 | 205 | 3.2 | 22.5 | 0.00 | 0.00 | 0.00 | 46 | 1012.3 |
| 20260831214617 | 25 | 157 | 4.8 | 19.3 | 0.00 | 0.00 | 0.00 | 47 | 1012.4 |
| 20260831213046 | 24 | 146 | 9.7 | 25.7 | 0.00 | 0.00 | 0.00 | 47 | 1012.5 |
| 20260831211546 | 25 | 133 | 4.8 | 22.5 | 0.00 | 0.00 | 0.00 | 49 | 1012.6 |
| 20260831210044 | 25 | 171 | 3.2 | 24.1 | 0.00 | 0.00 | 0.00 | 48 | 1012.7 |
| 20260831204540 | 24 | 92 | 4.8 | 17.7 | 0.00 | 0.00 | 0.00 | 50 | 1012.8 |
| 20260831203036 | 23 | 46 | 4.8 | 20.9 | 0.00 | 0.00 | 0.00 | 52 | 1012.8 |
| 20260831201538 | 22 | 46 | 6.4 | 24.1 | 0.00 | 0.00 | 0.00 | 53 | 1012.9 |
| 20260831200040 | 22 | 36 | 4.8 | 16.1 | 0.00 | 0.00 | 0.00 | 55 | 1013.1 |
| 20260831194527 | 22 | 17 | 8.0 | 20.9 | 0.00 | 0.00 | 0.00 | 56 | 1013.2 |
| 20260831193033 | 21 | 15 | 6.4 | 20.9 | 0.00 | 0.00 | 0.00 | 56 | 1013.6 |
| 20260831191527 | 21 | 19 | 6.4 | 22.5 | 0.00 | 0.00 | 0.00 | 58 | 1013.6 |
| 20260831190031 | 21 | 14 | 6.4 | 22.5 | 0.00 | 0.00 | 0.00 | 60 | 1013.6 |
| 20260831184521 | 20 | 14 | 8.0 | 20.9 | 0.00 | 0.00 | 0.00 | 62 | 1013.5 |
| 20260831183014 | 20 | 12 | 9.7 | 22.5 | 0.00 | 0.00 | 0.00 | 63 | 1013.6 |
| 20260831181513 | 19 | 13 | 4.8 | 24.1 | 0.00 | 0.00 | 0.00 | 64 | 1013.6 |
| 20260831180010 | 19 | 13 | 4.8 | 19.3 | 0.00 | 0.00 | 0.00 | 66 | 1013.5 |
| 20260831174510 | 18 | 12 | 8.0 | 16.1 | 0.00 | 0.00 | 0.00 | 66 | 1013.6 |
| 20260831173008 | 18 | 12 | 9.7 | 20.9 | 0.00 | 0.00 | 0.00 | 68 | 1013.7 |
| 20260831171507 | 17 | 12 | 4.8 | 19.3 | 0.00 | 0.00 | 0.00 | 70 | 1013.6 |
| 20260831170006 | 17 | 13 | 4.8 | 20.9 | 0.00 | 0.00 | 0.00 | 72 | 1013.4 |
| 20260831164504 | 16 | 13 | 4.8 | 19.3 | 0.00 | 0.00 | 0.00 | 75 | 1013.4 |
| 20260831163059 | 16 | 13 | 3.2 | 20.9 | 0.00 | 0.00 | 0.00 | 77 | 1013.3 |
| 20260831161556 | 15 | 12 | 8.0 | 17.7 | 0.00 | 0.00 | 0.00 | 78 | 1013.2 |
| 20260831160055 | 15 | 12 | 4.8 | 17.7 | 0.00 | 0.00 | 0.00 | 78 | 1013.2 |
| 20260831154606 | 15 | 12 | 4.8 | 19.3 | 0.00 | 0.00 | 0.00 | 79 | 1013.2 |
| 20260831153053 | 15 | 12 | 3.2 | 17.7 | 0.00 | 0.00 | 0.00 | 79 | 1013.1 |
| 20260831151550 | 15 | 13 | 0.0 | 19.3 | 0.00 | 0.00 | 0.00 | 79 | 1013.0 |
| 20260831150048 | 15 | 13 | 6.4 | 16.1 | 0.00 | 0.00 | 0.00 | 79 | 1012.8 |
| 20260831144548 | 15 | 15 | 4.8 | 16.1 | 0.00 | 0.00 | 0.00 | 79 | 1012.7 |
| 20260831143042 | 15 | 14 | 3.2 | 19.3 | 0.00 | 0.00 | 0.00 | 80 | 1012.6 |
| 20260831141539 | 14 | 156 | 4.8 | 16.1 | 0.00 | 0.00 | 0.00 | 79 | 1012.3 |
| 20260831140041 | 14 | 163 | 4.8 | 22.5 | 0.00 | 0.00 | 0.00 | 78 | 1012.1 |
| 20260831134535 | 14 | 150 | 6.4 | 17.7 | 0.00 | 0.00 | 0.00 | 78 | 1011.9 |
| 20260831133035 | 15 | 144 | 4.8 | 17.7 | 0.00 | 0.00 | 0.00 | 78 | 1011.8 |
| 20260831131541 | 15 | 209 | 3.2 | 22.5 | 0.00 | 0.00 | 0.00 | 78 | 1011.7 |
| 20260831130036 | 15 | 155 | 6.4 | 22.5 | 0.00 | 0.00 | 0.00 | 77 | 1011.5 |
| 20260831124531 | 15 | 133 | 4.8 | 19.3 | 0.00 | 0.00 | 0.00 | 77 | 1011.4 |
| 20260831123024 | 15 | 148 | 3.2 | 17.7 | 0.00 | 0.00 | 0.00 | 77 | 1011.3 |
| 20260831121523 | 15 | 83 | 1.6 | 12.9 | 0.00 | 0.00 | 0.00 | 77 | 1011.3 |
| 20260831120029 | 15 | 140 | 4.8 | 14.5 | 0.00 | 0.00 | 0.00 | 77 | 1011.4 |
| 20260831114517 | 15 | 177 | 4.8 | 12.9 | 0.00 | 0.00 | 0.00 | 76 | 1011.2 |
| 20260831113015 | 15 | 210 | 3.2 | 14.5 | 0.00 | 0.00 | 0.00 | 75 | 1011.2 |
| 20260831111517 | 15 | 160 | 4.8 | 19.3 | 0.00 | 0.00 | 0.00 | 74 | 1011.0 |
| 20260831110013 | 15 | 156 | 3.2 | 16.1 | 0.00 | 0.00 | 0.00 | 74 | 1011.2 |
| 20260831104510 | 16 | 163 | 4.8 | 14.5 | 0.00 | 0.00 | 0.00 | 73 | 1011.1 |
| 20260831103008 | 16 | 134 | 4.8 | 16.1 | 0.00 | 0.00 | 0.00 | 72 | 1011.2 |
| 20260831101507 | 16 | 151 | 3.2 | 16.1 | 0.00 | 0.00 | 0.00 | 72 | 1011.0 |
| 20260831100006 | 16 | 101 | 3.2 | 17.7 | 0.00 | 0.00 | 0.00 | 72 | 1011.0 |
| 20260831094504 | 16 | 150 | 3.2 | 16.1 | 0.00 | 0.00 | 0.00 | 71 | 1010.9 |
| 20260831093000 | 16 | 148 | 1.6 | 14.5 | 0.00 | 0.00 | 0.00 | 70 | 1010.9 |
| 20260831091600 | 17 | 189 | 3.2 | 14.5 | 0.00 | 0.00 | 0.00 | 69 | 1011.0 |
| 20260831090107 | 17 | 11 | 3.2 | 12.9 | 0.00 | 0.00 | 0.00 | 68 | 1011.0 |
| 20260831084557 | 17 | 11 | 3.2 | 14.5 | 0.00 | 0.00 | 0.00 | 67 | 1011.0 |
| 20260831083055 | 17 | 11 | 1.6 | 9.7 | 0.00 | 0.00 | 0.00 | 67 | 1011.0 |
| 20260831081557 | 17 | 12 | 1.6 | 12.9 | 0.00 | 0.00 | 0.00 | 66 | 1011.0 |
| 20260831080052 | 17 | 11 | 1.6 | 16.1 | 0.00 | 0.00 | 0.00 | 66 | 1011.1 |
| 20260831074547 | 18 | 11 | 3.2 | 14.5 | 0.00 | 0.00 | 0.00 | 66 | 1011.0 |
| 20260831073045 | 18 | 11 | 4.8 | 14.5 | 0.00 | 0.00 | 0.00 | 65 | 1010.9 |
| 20260831071546 | 18 | 11 | 4.8 | 12.9 | 0.00 | 0.00 | 0.00 | 64 | 1010.9 |
| 20260831070041 | 18 | 11 | 4.8 | 12.9 | 0.00 | 0.00 | 0.00 | 63 | 1010.9 |
| 20260831064541 | 19 | 11 | 6.4 | 14.5 | 0.00 | 0.00 | 0.00 | 63 | 1010.9 |
| 20260831063040 | 19 | 12 | 0.0 | 9.7 | 0.00 | 0.00 | 0.00 | 63 | 1011.0 |
| 20260831061539 | 19 | 11 | 3.2 | 9.7 | 0.00 | 0.00 | 0.00 | 63 | 1010.9 |
| 20260831060039 | 20 | 11 | 1.6 | 8.0 | 0.00 | 0.00 | 0.00 | 62 | 1010.8 |
| 20260831054538 | 20 | 12 | 3.2 | 9.7 | 0.00 | 0.00 | 0.00 | 61 | 1010.8 |
| 20260831053038 | 20 | 12 | 1.6 | 12.9 | 0.00 | 0.00 | 0.00 | 60 | 1010.8 |
| 20260831051550 | 21 | 11 | 1.6 | 12.9 | 0.00 | 0.00 | 0.00 | 58 | 1010.9 |
| 20260831050037 | 21 | 12 | 3.2 | 12.9 | 0.00 | 0.00 | 0.00 | 56 | 1010.8 |
| 20260831044536 | 21 | 12 | 1.6 | 12.9 | 0.00 | 0.00 | 0.00 | 55 | 1010.7 |
| 20260831043035 | 22 | 12 | 0.0 | 12.9 | 0.00 | 0.00 | 0.00 | 54 | 1010.6 |
| 20260831041537 | 22 | 12 | 1.6 | 12.9 | 0.00 | 0.00 | 0.00 | 52 | 1010.6 |
| 20260831041505 | 22 | 11 | 1.6 | 12.9 | 0.00 | 0.00 | 0.00 | 52 | 1010.7 |
| 20260831040036 | 23 | 13 | 1.6 | 16.1 | 0.00 | 0.00 | 0.00 | 49 | 1010.4 |
| 20260831034537 | 25 | 12 | 4.8 | 11.3 | 0.00 | 0.00 | 0.00 | 46 | 1010.4 |
| 20260831033034 | 25 | 11 | 3.2 | 14.5 | 0.00 | 0.00 | 0.00 | 44 | 1010.2 |
| 20260831031532 | 26 | 13 | 3.2 | 14.5 | 0.00 | 0.00 | 0.00 | 40 | 1010.1 |
| 20260831030032 | 26 | 139 | 0.0 | 12.9 | 0.00 | 0.00 | 0.00 | 37 | 1010.1 |
| 20260831024534 | 27 | 178 | 1.6 | 14.5 | 0.00 | 0.00 | 0.00 | 37 | 1010.0 |
| 20260831023030 | 28 | 208 | 1.6 | 19.3 | 0.00 | 0.00 | 0.00 | 34 | 1009.9 |
| 20260831021531 | 29 | 184 | 4.8 | 11.3 | 0.00 | 0.00 | 0.00 | 30 | 1009.9 |
| 20260831020029 | 30 | 162 | 3.2 | 9.7 | 0.00 | 0.00 | 0.00 | 27 | 1009.8 |
| 20260831014530 | 31 | 169 | 0.0 | 11.3 | 0.00 | 0.00 | 0.00 | 29 | 1009.8 |
| 20260831013028 | 32 | 179 | 0.0 | 11.3 | 0.00 | 0.00 | 0.00 | 30 | 1009.8 |
| 20260831011537 | 33 | 186 | 3.2 | 12.9 | 0.00 | 0.00 | 0.00 | 29 | 1009.9 |
| 20260831010025 | 33 | 248 | 0.0 | 8.0 | 0.00 | 0.00 | 0.00 | 27 | 1010.0 |
| 20260831004523 | 33 | 139 | 0.0 | 12.9 | 0.00 | 0.00 | 0.00 | 27 | 1010.0 |
| 20260831003033 | 33 | 283 | 0.0 | 6.4 | 0.00 | 0.00 | 0.00 | 25 | 1010.1 |
| 20260831001521 | 33 | 212 | 3.2 | 12.9 | 0.00 | 0.00 | 0.00 | 25 | 1010.2 |
| 20260831000021 | 33 | 266 | 0.0 | 12.9 | 0.00 | 0.00 | 0.00 | 27 | 1010.3 |
| 20260830234527 | 33 | 248 | 1.6 | 8.0 | 0.00 | 0.00 | 0.00 | 28 | 1010.4 |
| 20260830233012 | 33 | 267 | 1.6 | 8.0 | 0.00 | 0.00 | 0.00 | 29 | 1010.6 |
| 20260830231508 | 33 | 194 | 3.2 | 8.0 | 0.00 | 0.00 | 0.00 | 30 | 1010.7 |
| 20260830230005 | 33 | 300 | 0.0 | 8.0 | 0.00 | 0.00 | 0.00 | 31 | 1010.9 |